| time (UTC) | temp C | wind direction | speed KPH | gust KPH | rain 1hr cm | rain 24hr cm | rain mn cm | humidity % | barometer mb |
| 20260510165031 | 26 | 283 | 6.4 | 14.5 | 0.00 | 0.00 | 0.00 | 57 | 1017.3 |
| 20260510164540 | 26 | 5 | 6.4 | 14.5 | 0.00 | 0.00 | 0.00 | 55 | 1017.4 |
| 20260510164029 | 26 | 280 | 6.4 | 14.5 | 0.00 | 0.00 | 0.00 | 55 | 1017.4 |
| 20260510163532 | 25 | 17 | 0.0 | 12.9 | 0.00 | 0.00 | 0.00 | 55 | 1017.5 |
| 20260510163035 | 25 | 322 | 3.2 | 12.9 | 0.00 | 0.00 | 0.00 | 55 | 1017.5 |
| 20260510162532 | 25 | 338 | 4.8 | 12.9 | 0.00 | 0.00 | 0.00 | 55 | 1017.4 |
| 20260510162030 | 25 | 336 | 0.0 | 8.0 | 0.00 | 0.00 | 0.00 | 55 | 1017.5 |
| 20260510161541 | 25 | 349 | 1.6 | 12.9 | 0.00 | 0.00 | 0.00 | 55 | 1017.5 |
| 20260510161033 | 25 | 15 | 4.8 | 14.5 | 0.00 | 0.00 | 0.00 | 54 | 1017.5 |
| 20260510160529 | 25 | 320 | 6.4 | 14.5 | 0.00 | 0.00 | 0.00 | 55 | 1017.4 |
| 20260510160048 | 25 | 262 | 1.6 | 8.0 | 0.00 | 0.00 | 0.00 | 57 | 1017.4 |
| 20260510155535 | 24 | 351 | 1.6 | 9.7 | 0.00 | 0.00 | 0.00 | 58 | 1017.5 |
| 20260510155033 | 25 | 301 | 4.8 | 9.7 | 0.00 | 0.00 | 0.00 | 60 | 1017.5 |
| 20260510154558 | 24 | 74 | 1.6 | 12.9 | 0.00 | 0.00 | 0.00 | 61 | 1017.6 |
| 20260510154035 | 24 | 89 | 3.2 | 12.9 | 0.00 | 0.00 | 0.00 | 62 | 1017.6 |
| 20260510153534 | 24 | 309 | 3.2 | 12.9 | 0.00 | 0.00 | 0.00 | 61 | 1017.7 |
| 20260510153100 | 24 | 47 | 4.8 | 11.3 | 0.00 | 0.00 | 0.00 | 62 | 1017.7 |
| 20260510152531 | 23 | 312 | 4.8 | 11.3 | 0.00 | 0.00 | 0.00 | 64 | 1017.8 |
| 20260510152032 | 23 | 360 | 3.2 | 12.9 | 0.00 | 0.00 | 0.00 | 64 | 1017.8 |
| 20260510151543 | 23 | 0 | 3.2 | 12.9 | 0.00 | 0.00 | 0.00 | 65 | 1017.7 |
| 20260510151031 | 23 | 294 | 3.2 | 11.3 | 0.00 | 0.00 | 0.00 | 67 | 1017.6 |
| 20260510150533 | 23 | 266 | 4.8 | 12.9 | 0.00 | 0.00 | 0.00 | 68 | 1017.7 |
| 20260510145534 | 23 | 346 | 3.2 | 12.9 | 0.00 | 0.00 | 0.00 | 71 | 1017.7 |
| 20260510145032 | 22 | 5 | 3.2 | 12.9 | 0.00 | 0.00 | 0.00 | 70 | 1017.8 |
| 20260510144557 | 22 | 360 | 3.2 | 12.9 | 0.00 | 0.00 | 0.00 | 72 | 1017.8 |
| 20260510144036 | 22 | 321 | 6.4 | 12.9 | 0.00 | 0.00 | 0.00 | 73 | 1017.8 |
| 20260510143533 | 22 | 21 | 3.2 | 11.3 | 0.00 | 0.00 | 0.00 | 74 | 1017.7 |
| 20260510143039 | 21 | 304 | 3.2 | 9.7 | 0.00 | 0.00 | 0.00 | 75 | 1017.7 |
| 20260510142532 | 21 | 27 | 1.6 | 12.9 | 0.00 | 0.00 | 0.00 | 77 | 1017.6 |
| 20260510142033 | 21 | 30 | 4.8 | 12.9 | 0.00 | 0.00 | 0.00 | 77 | 1017.6 |
| 20260510141547 | 21 | 311 | 6.4 | 12.9 | 0.00 | 0.00 | 0.00 | 78 | 1017.6 |
| 20260510141032 | 21 | 313 | 4.8 | 11.3 | 0.00 | 0.00 | 0.00 | 79 | 1017.5 |
| 20260510140531 | 20 | 17 | 3.2 | 8.0 | 0.00 | 0.00 | 0.00 | 81 | 1017.5 |
| 20260510140035 | 20 | 11 | 3.2 | 8.0 | 0.00 | 0.00 | 0.00 | 82 | 1017.4 |
| 20260510135530 | 20 | 315 | 0.0 | 4.8 | 0.00 | 0.00 | 0.00 | 83 | 1017.3 |
| 20260510135034 | 20 | 94 | 0.0 | 6.4 | 0.00 | 0.00 | 0.00 | 83 | 1017.2 |
| 20260510134549 | 20 | 54 | 1.6 | 8.0 | 0.00 | 0.00 | 0.00 | 84 | 1017.2 |
| 20260510134029 | 19 | 12 | 3.2 | 8.0 | 0.00 | 0.00 | 0.00 | 85 | 1017.2 |
| 20260510133529 | 18 | 304 | 3.2 | 6.4 | 0.00 | 0.00 | 0.00 | 86 | 1017.2 |
| 20260510133041 | 18 | 0 | 0.0 | 8.0 | 0.00 | 0.00 | 0.00 | 87 | 1017.3 |
| 20260510132530 | 18 | 309 | 1.6 | 8.0 | 0.00 | 0.00 | 0.00 | 87 | 1017.2 |
| 20260510132031 | 18 | 294 | 3.2 | 8.0 | 0.00 | 0.00 | 0.00 | 87 | 1017.1 |
| 20260510131541 | 18 | 260 | 1.6 | 6.4 | 0.00 | 0.00 | 0.00 | 88 | 1017.2 |
| 20260510131031 | 18 | 255 | 1.6 | 6.4 | 0.00 | 0.00 | 0.00 | 88 | 1017.2 |
| 20260510130528 | 18 | 331 | 0.0 | 6.4 | 0.00 | 0.00 | 0.00 | 88 | 1017.3 |
| 20260510130039 | 18 | 0 | 1.6 | 6.4 | 0.00 | 0.00 | 0.00 | 88 | 1017.2 |
| 20260510125529 | 18 | 0 | 1.6 | 6.4 | 0.00 | 0.00 | 0.00 | 89 | 1017.2 |
| 20260510125031 | 17 | 323 | 1.6 | 6.4 | 0.00 | 0.00 | 0.00 | 90 | 1017.1 |
| 20260510124546 | 17 | 323 | 1.6 | 6.4 | 0.00 | 0.00 | 0.00 | 90 | 1017.1 |
| 20260510124029 | 17 | 319 | 0.0 | 6.4 | 0.00 | 0.00 | 0.00 | 91 | 1017.1 |
| 20260510123531 | 17 | 319 | 0.0 | 4.8 | 0.00 | 0.00 | 0.00 | 91 | 1017.1 |
| 20260510123040 | 17 | 0 | 0.0 | 6.4 | 0.00 | 0.00 | 0.00 | 91 | 1017.1 |
| 20260510122530 | 17 | 319 | 1.6 | 6.4 | 0.00 | 0.00 | 0.00 | 91 | 1017.1 |
| 20260510122030 | 17 | 317 | 1.6 | 6.4 | 0.00 | 0.00 | 0.00 | 92 | 1017.0 |
| 20260510121541 | 16 | 317 | 0.0 | 8.0 | 0.00 | 0.00 | 0.00 | 92 | 1017.0 |
| 20260510121030 | 16 | 316 | 3.2 | 8.0 | 0.00 | 0.00 | 0.00 | 92 | 1016.8 |
| 20260510120532 | 16 | 315 | 1.6 | 8.0 | 0.00 | 0.00 | 0.00 | 92 | 1016.6 |
| 20260510120042 | 16 | 0 | 1.6 | 6.4 | 0.00 | 0.00 | 0.00 | 92 | 1016.5 |
| 20260510115531 | 16 | 346 | 1.6 | 6.4 | 0.00 | 0.00 | 0.00 | 92 | 1016.4 |
| 20260510115031 | 16 | 0 | 1.6 | 8.0 | 0.00 | 0.00 | 0.00 | 92 | 1016.3 |
| 20260510114537 | 16 | 352 | 3.2 | 8.0 | 0.00 | 0.00 | 0.00 | 92 | 1016.3 |
| 20260510114029 | 16 | 329 | 1.6 | 9.7 | 0.00 | 0.00 | 0.00 | 92 | 1016.2 |
| 20260510113531 | 16 | 336 | 3.2 | 9.7 | 0.00 | 0.00 | 0.00 | 92 | 1016.2 |
| 20260510113043 | 16 | 350 | 1.6 | 6.4 | 0.00 | 0.00 | 0.00 | 93 | 1016.1 |
| 20260510112531 | 16 | 0 | 0.0 | 11.3 | 0.00 | 0.00 | 0.00 | 93 | 1016.0 |
| 20260510112030 | 16 | 355 | 4.8 | 11.3 | 0.00 | 0.00 | 0.00 | 93 | 1016.0 |
| 20260510111546 | 16 | 340 | 3.2 | 8.0 | 0.00 | 0.00 | 0.00 | 93 | 1015.9 |
| 20260510111031 | 16 | 0 | 1.6 | 8.0 | 0.00 | 0.00 | 0.00 | 93 | 1015.8 |
| 20260510110530 | 16 | 334 | 1.6 | 8.0 | 0.00 | 0.00 | 0.00 | 93 | 1015.8 |
| 20260510110043 | 16 | 331 | 3.2 | 8.0 | 0.00 | 0.00 | 0.00 | 93 | 1015.8 |
| 20260510105527 | 16 | 344 | 3.2 | 8.0 | 0.00 | 0.00 | 0.00 | 93 | 1015.8 |
| 20260510105033 | 16 | 346 | 1.6 | 6.4 | 0.00 | 0.00 | 0.00 | 93 | 1015.7 |
| 20260510104552 | 16 | 0 | 0.0 | 6.4 | 0.00 | 0.00 | 0.00 | 93 | 1015.7 |
| 20260510104029 | 16 | 0 | 0.0 | 4.8 | 0.00 | 0.00 | 0.00 | 93 | 1015.6 |
| 20260510103527 | 16 | 309 | 0.0 | 6.4 | 0.00 | 0.00 | 0.00 | 93 | 1015.4 |
| 20260510103039 | 16 | 0 | 0.0 | 6.4 | 0.00 | 0.00 | 0.00 | 93 | 1015.4 |
| 20260510102529 | 16 | 311 | 1.6 | 8.0 | 0.00 | 0.00 | 0.00 | 93 | 1015.3 |
| 20260510102031 | 15 | 304 | 1.6 | 8.0 | 0.00 | 0.00 | 0.00 | 93 | 1015.3 |
| 20260510101549 | 15 | 314 | 1.6 | 6.4 | 0.00 | 0.00 | 0.00 | 93 | 1015.2 |
| 20260510101033 | 15 | 313 | 0.0 | 4.8 | 0.00 | 0.00 | 0.00 | 93 | 1015.2 |
| 20260510100533 | 15 | 310 | 0.0 | 4.8 | 0.00 | 0.00 | 0.00 | 93 | 1015.2 |
| 20260510100052 | 15 | 0 | 0.0 | 6.4 | 0.00 | 0.00 | 0.00 | 93 | 1015.2 |
| 20260510095533 | 15 | 0 | 0.0 | 6.4 | 0.00 | 0.00 | 0.00 | 93 | 1015.2 |
| 20260510095029 | 15 | 308 | 0.0 | 6.4 | 0.00 | 0.00 | 0.00 | 93 | 1015.3 |
| 20260510094539 | 15 | 0 | 0.0 | 3.2 | 0.00 | 0.00 | 0.00 | 92 | 1015.2 |
| 20260510094032 | 14 | 0 | 0.0 | 0.0 | 0.00 | 0.00 | 0.00 | 92 | 1015.1 |
| 20260510093532 | 14 | 0 | 0.0 | 0.0 | 0.00 | 0.00 | 0.00 | 92 | 1015.1 |
| 20260510093046 | 14 | 0 | 0.0 | 0.0 | 0.00 | 0.00 | 0.00 | 92 | 1015.0 |
| 20260510092531 | 14 | 0 | 0.0 | 0.0 | 0.00 | 0.00 | 0.00 | 92 | 1014.8 |
| 20260510092032 | 14 | 0 | 0.0 | 0.0 | 0.00 | 0.00 | 0.00 | 91 | 1014.8 |
| 20260510091547 | 14 | 0 | 0.0 | 0.0 | 0.00 | 0.00 | 0.00 | 91 | 1014.6 |
| 20260510091032 | 14 | 0 | 0.0 | 0.0 | 0.00 | 0.00 | 0.00 | 91 | 1014.5 |
| 20260510090530 | 14 | 0 | 0.0 | 0.0 | 0.00 | 0.00 | 0.00 | 91 | 1014.4 |
| 20260510090044 | 14 | 0 | 0.0 | 0.0 | 0.00 | 0.00 | 0.00 | 91 | 1014.4 |
| 20260510085532 | 14 | 0 | 0.0 | 0.0 | 0.00 | 0.00 | 0.00 | 91 | 1014.3 |
| 20260510085033 | 14 | 0 | 0.0 | 0.0 | 0.00 | 0.00 | 0.00 | 91 | 1014.3 |
| 20260510084557 | 14 | 0 | 0.0 | 0.0 | 0.00 | 0.00 | 0.00 | 91 | 1014.3 |
| 20260510084032 | 15 | 0 | 0.0 | 0.0 | 0.00 | 0.00 | 0.00 | 91 | 1014.3 |
| 20260510083534 | 15 | 0 | 0.0 | 0.0 | 0.00 | 0.00 | 0.00 | 91 | 1014.2 |
| 20260510083056 | 15 | 0 | 0.0 | 0.0 | 0.00 | 0.00 | 0.00 | 91 | 1014.1 |
| 20260510082532 | 15 | 0 | 0.0 | 0.0 | 0.00 | 0.00 | 0.00 | 91 | 1014.1 |
| 20260510082032 | 15 | 0 | 0.0 | 0.0 | 0.00 | 0.00 | 0.00 | 91 | 1014.1 |
| 20260510081547 | 15 | 0 | 0.0 | 0.0 | 0.00 | 0.00 | 0.00 | 91 | 1014.1 |
| 20260510081033 | 15 | 0 | 0.0 | 0.0 | 0.00 | 0.00 | 0.00 | 91 | 1014.0 |
| 20260510080534 | 15 | 0 | 0.0 | 0.0 | 0.00 | 0.00 | 0.00 | 91 | 1014.0 |
| 20260510080046 | 15 | 0 | 0.0 | 0.0 | 0.00 | 0.00 | 0.00 | 91 | 1014.0 |
| 20260510075532 | 15 | 0 | 0.0 | 1.6 | 0.00 | 0.00 | 0.00 | 91 | 1014.0 |
| 20260510075033 | 15 | 0 | 0.0 | 1.6 | 0.00 | 0.00 | 0.00 | 90 | 1013.9 |
| 20260510074553 | 15 | 0 | 0.0 | 0.0 | 0.00 | 0.00 | 0.00 | 90 | 1013.9 |
| 20260510074032 | 15 | 0 | 0.0 | 0.0 | 0.00 | 0.00 | 0.00 | 90 | 1013.8 |
| 20260510073532 | 15 | 0 | 0.0 | 0.0 | 0.00 | 0.00 | 0.00 | 90 | 1013.8 |
| 20260510073049 | 15 | 0 | 0.0 | 0.0 | 0.00 | 0.00 | 0.00 | 90 | 1014.0 |
| 20260510072534 | 15 | 0 | 0.0 | 0.0 | 0.00 | 0.00 | 0.00 | 90 | 1014.0 |
| 20260510072038 | 16 | 0 | 0.0 | 0.0 | 0.00 | 0.00 | 0.00 | 90 | 1013.9 |
| 20260510071543 | 16 | 0 | 0.0 | 1.6 | 0.00 | 0.00 | 0.00 | 90 | 1013.9 |
| 20260510071032 | 16 | 0 | 0.0 | 1.6 | 0.00 | 0.00 | 0.00 | 90 | 1013.9 |
| 20260510070536 | 16 | 0 | 0.0 | 1.6 | 0.00 | 0.00 | 0.00 | 90 | 1013.8 |
| 20260510070042 | 16 | 0 | 0.0 | 1.6 | 0.00 | 0.00 | 0.00 | 90 | 1013.8 |
| 20260510065532 | 16 | 0 | 0.0 | 0.0 | 0.00 | 0.00 | 0.00 | 90 | 1013.9 |
| 20260510065032 | 16 | 0 | 0.0 | 0.0 | 0.00 | 0.00 | 0.00 | 90 | 1014.0 |
| 20260510064547 | 16 | 0 | 0.0 | 0.0 | 0.00 | 0.00 | 0.00 | 90 | 1014.0 |
| 20260510064032 | 16 | 0 | 0.0 | 0.0 | 0.00 | 0.00 | 0.00 | 89 | 1013.9 |
| 20260510063532 | 16 | 0 | 0.0 | 0.0 | 0.00 | 0.00 | 0.00 | 89 | 1013.9 |
| 20260510063045 | 16 | 0 | 0.0 | 0.0 | 0.00 | 0.00 | 0.00 | 89 | 1014.0 |
| 20260510062530 | 16 | 0 | 0.0 | 0.0 | 0.00 | 0.00 | 0.00 | 89 | 1013.9 |
| 20260510062031 | 16 | 0 | 0.0 | 0.0 | 0.00 | 0.00 | 0.00 | 89 | 1013.8 |
| 20260510061554 | 16 | 0 | 0.0 | 3.2 | 0.00 | 0.00 | 0.00 | 89 | 1013.8 |
| 20260510061033 | 16 | 0 | 0.0 | 3.2 | 0.00 | 0.00 | 0.00 | 89 | 1013.9 |
| 20260510060534 | 16 | 0 | 0.0 | 3.2 | 0.00 | 0.00 | 0.00 | 89 | 1014.0 |
| 20260510060046 | 16 | 0 | 0.0 | 0.0 | 0.00 | 0.00 | 0.00 | 88 | 1014.1 |
| 20260510055533 | 16 | 0 | 0.0 | 0.0 | 0.00 | 0.00 | 0.00 | 88 | 1014.0 |
| 20260510055033 | 16 | 0 | 0.0 | 0.0 | 0.00 | 0.00 | 0.00 | 88 | 1014.0 |
| 20260510054540 | 17 | 0 | 0.0 | 0.0 | 0.00 | 0.00 | 0.00 | 88 | 1014.1 |
| 20260510054034 | 17 | 0 | 0.0 | 0.0 | 0.00 | 0.00 | 0.00 | 88 | 1014.1 |
| 20260510053533 | 17 | 0 | 0.0 | 1.6 | 0.00 | 0.00 | 0.00 | 88 | 1014.1 |
| 20260510053041 | 17 | 0 | 0.0 | 3.2 | 0.00 | 0.00 | 0.00 | 88 | 1014.2 |
| 20260510052534 | 17 | 0 | 0.0 | 3.2 | 0.00 | 0.00 | 0.00 | 88 | 1014.3 |
| 20260510052034 | 17 | 192 | 0.0 | 3.2 | 0.00 | 0.00 | 0.00 | 88 | 1014.2 |
| 20260510051544 | 17 | 0 | 0.0 | 1.6 | 0.00 | 0.00 | 0.00 | 87 | 1014.2 |
| 20260510051032 | 17 | 0 | 0.0 | 1.6 | 0.00 | 0.00 | 0.00 | 87 | 1014.4 |
| 20260510050531 | 17 | 0 | 0.0 | 3.2 | 0.00 | 0.00 | 0.00 | 87 | 1014.3 |
| 20260510050045 | 17 | 0 | 0.0 | 3.2 | 0.00 | 0.00 | 0.00 | 87 | 1014.5 |
| 20260510045533 | 17 | 0 | 0.0 | 0.0 | 0.00 | 0.00 | 0.00 | 87 | 1014.4 |
| 20260510045032 | 17 | 0 | 0.0 | 0.0 | 0.00 | 0.00 | 0.00 | 87 | 1014.4 |
| 20260510044542 | 17 | 0 | 0.0 | 1.6 | 0.00 | 0.00 | 0.00 | 87 | 1014.4 |
| 20260510044033 | 17 | 0 | 0.0 | 1.6 | 0.00 | 0.00 | 0.00 | 87 | 1014.4 |
| 20260510043531 | 17 | 0 | 0.0 | 4.8 | 0.00 | 0.00 | 0.00 | 87 | 1014.4 |
| 20260510043043 | 17 | 0 | 0.0 | 6.4 | 0.00 | 0.00 | 0.00 | 86 | 1014.5 |
| 20260510042531 | 17 | 192 | 1.6 | 8.0 | 0.00 | 0.00 | 0.00 | 86 | 1014.5 |
| 20260510042035 | 18 | 192 | 1.6 | 8.0 | 0.00 | 0.00 | 0.00 | 86 | 1014.5 |
| 20260510041544 | 18 | 194 | 3.2 | 8.0 | 0.00 | 0.00 | 0.00 | 86 | 1014.5 |
| 20260510041034 | 18 | 219 | 1.6 | 9.7 | 0.00 | 0.00 | 0.00 | 86 | 1014.6 |
| 20260510040532 | 18 | 227 | 3.2 | 9.7 | 0.00 | 0.00 | 0.00 | 86 | 1014.5 |
| 20260510040055 | 18 | 200 | 4.8 | 14.5 | 0.00 | 0.00 | 0.00 | 86 | 1014.6 |
| 20260510035531 | 18 | 206 | 4.8 | 14.5 | 0.00 | 0.00 | 0.00 | 86 | 1014.5 |
| 20260510035032 | 18 | 238 | 3.2 | 12.9 | 0.00 | 0.00 | 0.00 | 85 | 1014.7 |
| 20260510034547 | 18 | 221 | 4.8 | 12.9 | 0.00 | 0.00 | 0.00 | 85 | 1014.8 |
| 20260510034033 | 18 | 201 | 3.2 | 14.5 | 0.00 | 0.00 | 0.00 | 85 | 1014.7 |
| 20260510033534 | 18 | 220 | 3.2 | 14.5 | 0.00 | 0.00 | 0.00 | 85 | 1014.8 |
| 20260510033041 | 18 | 229 | 4.8 | 11.3 | 0.00 | 0.00 | 0.00 | 85 | 1014.8 |
| 20260510032533 | 18 | 215 | 4.8 | 11.3 | 0.00 | 0.00 | 0.00 | 85 | 1014.8 |
| 20260510032035 | 18 | 211 | 1.6 | 9.7 | 0.00 | 0.00 | 0.00 | 84 | 1014.5 |
| 20260510031555 | 18 | 221 | 4.8 | 9.7 | 0.00 | 0.00 | 0.00 | 84 | 1014.6 |
| 20260510031033 | 18 | 224 | 3.2 | 11.3 | 0.00 | 0.00 | 0.00 | 84 | 1014.5 |
| 20260510030534 | 18 | 193 | 3.2 | 11.3 | 0.00 | 0.00 | 0.00 | 84 | 1014.4 |
| 20260510030038 | 18 | 226 | 3.2 | 9.7 | 0.00 | 0.00 | 0.00 | 83 | 1014.4 |
| 20260510025533 | 18 | 201 | 3.2 | 9.7 | 0.00 | 0.00 | 0.00 | 83 | 1014.2 |
| 20260510025033 | 18 | 211 | 4.8 | 9.7 | 0.00 | 0.00 | 0.00 | 83 | 1014.2 |
| 20260510024545 | 18 | 191 | 4.8 | 9.7 | 0.00 | 0.00 | 0.00 | 83 | 1014.2 |
| 20260510024029 | 18 | 241 | 3.2 | 8.0 | 0.00 | 0.00 | 0.00 | 82 | 1014.2 |
| 20260510023531 | 18 | 202 | 3.2 | 8.0 | 0.00 | 0.00 | 0.00 | 82 | 1014.1 |
| 20260510023044 | 18 | 196 | 3.2 | 8.0 | 0.00 | 0.00 | 0.00 | 82 | 1014.1 |
| 20260510022534 | 18 | 205 | 1.6 | 8.0 | 0.00 | 0.00 | 0.00 | 82 | 1014.0 |
| 20260510022033 | 18 | 209 | 1.6 | 8.0 | 0.00 | 0.00 | 0.00 | 82 | 1013.7 |
| 20260510021540 | 19 | 210 | 3.2 | 9.7 | 0.00 | 0.00 | 0.00 | 81 | 1013.7 |
| 20260510021031 | 19 | 212 | 3.2 | 11.3 | 0.00 | 0.00 | 0.00 | 81 | 1013.6 |
| 20260510020533 | 19 | 200 | 3.2 | 11.3 | 0.00 | 0.00 | 0.00 | 81 | 1013.7 |
| 20260510020041 | 19 | 199 | 4.8 | 11.3 | 0.00 | 0.00 | 0.00 | 81 | 1013.5 |
| 20260510015536 | 19 | 194 | 4.8 | 11.3 | 0.00 | 0.00 | 0.00 | 81 | 1013.6 |
| 20260510015030 | 19 | 196 | 3.2 | 11.3 | 0.00 | 0.00 | 0.00 | 80 | 1013.5 |
| 20260510014546 | 19 | 193 | 3.2 | 9.7 | 0.00 | 0.00 | 0.00 | 80 | 1013.4 |
| 20260510014032 | 19 | 213 | 4.8 | 9.7 | 0.00 | 0.00 | 0.00 | 80 | 1013.3 |
| 20260510013533 | 19 | 238 | 4.8 | 9.7 | 0.00 | 0.00 | 0.00 | 80 | 1013.3 |
| 20260510013054 | 19 | 156 | 3.2 | 9.7 | 0.00 | 0.00 | 0.00 | 80 | 1013.2 |
| 20260510012531 | 20 | 206 | 1.6 | 4.8 | 0.00 | 0.00 | 0.00 | 79 | 1013.3 |
| 20260510012034 | 20 | 209 | 0.0 | 6.4 | 0.00 | 0.00 | 0.00 | 79 | 1013.3 |
| 20260510011541 | 20 | 192 | 1.6 | 8.0 | 0.00 | 0.00 | 0.00 | 78 | 1013.2 |
| 20260510011032 | 20 | 190 | 3.2 | 9.7 | 0.00 | 0.00 | 0.00 | 78 | 1013.2 |
| 20260510010532 | 20 | 216 | 3.2 | 9.7 | 0.00 | 0.00 | 0.00 | 78 | 1013.2 |
| 20260510010041 | 20 | 219 | 4.8 | 9.7 | 0.00 | 0.00 | 0.00 | 78 | 1013.0 |
| 20260510005531 | 20 | 212 | 3.2 | 8.0 | 0.00 | 0.00 | 0.00 | 77 | 1012.9 |
| 20260510005032 | 20 | 218 | 3.2 | 8.0 | 0.00 | 0.00 | 0.00 | 77 | 1012.8 |
| 20260510004539 | 20 | 225 | 4.8 | 8.0 | 0.00 | 0.00 | 0.00 | 77 | 1012.9 |
| 20260510004031 | 20 | 210 | 1.6 | 8.0 | 0.00 | 0.00 | 0.00 | 77 | 1012.9 |
| 20260510003533 | 20 | 203 | 1.6 | 4.8 | 0.00 | 0.00 | 0.00 | 76 | 1012.8 |
| 20260510003040 | 20 | 0 | 0.0 | 6.4 | 0.00 | 0.00 | 0.00 | 75 | 1012.7 |
| 20260510002532 | 20 | 209 | 3.2 | 6.4 | 0.00 | 0.00 | 0.00 | 75 | 1012.8 |
| 20260510002034 | 21 | 221 | 0.0 | 4.8 | 0.00 | 0.00 | 0.00 | 75 | 1012.8 |
| 20260510001535 | 21 | 221 | 1.6 | 6.4 | 0.00 | 0.00 | 0.00 | 74 | 1012.8 |
| 20260510001032 | 21 | 221 | 1.6 | 8.0 | 0.00 | 0.00 | 0.00 | 74 | 1012.7 |
| 20260510000531 | 21 | 221 | 3.2 | 8.0 | 0.00 | 0.00 | 0.00 | 73 | 1012.5 |
| 20260510000043 | 21 | 215 | 4.8 | 8.0 | 0.00 | 0.00 | 0.00 | 73 | 1012.6 |
| 20260509235531 | 21 | 215 | 3.2 | 8.0 | 0.00 | 0.00 | 0.00 | 73 | 1012.6 |
| 20260509235033 | 21 | 211 | 3.2 | 9.7 | 0.00 | 0.00 | 0.00 | 72 | 1012.5 |
| 20260509234542 | 21 | 207 | 3.2 | 9.7 | 0.00 | 0.00 | 0.00 | 72 | 1012.3 |
| 20260509234032 | 21 | 209 | 3.2 | 8.0 | 0.00 | 0.00 | 0.00 | 72 | 1012.4 |
| 20260509233531 | 21 | 218 | 3.2 | 8.0 | 0.00 | 0.00 | 0.00 | 72 | 1012.3 |
| 20260509233040 | 21 | 226 | 3.2 | 8.0 | 0.00 | 0.00 | 0.00 | 72 | 1012.2 |
| 20260509232529 | 21 | 204 | 1.6 | 6.4 | 0.00 | 0.00 | 0.00 | 72 | 1012.0 |
| 20260509232032 | 21 | 203 | 1.6 | 4.8 | 0.00 | 0.00 | 0.00 | 71 | 1011.9 |
| 20260509231543 | 22 | 211 | 0.0 | 8.0 | 0.00 | 0.00 | 0.00 | 71 | 1011.8 |
| 20260509231030 | 22 | 211 | 1.6 | 8.0 | 0.00 | 0.00 | 0.00 | 70 | 1011.8 |
| 20260509230532 | 22 | 189 | 3.2 | 8.0 | 0.00 | 0.00 | 0.00 | 70 | 1011.9 |
| 20260509230041 | 22 | 213 | 1.6 | 9.7 | 0.00 | 0.00 | 0.00 | 70 | 1011.8 |
| 20260509225532 | 22 | 0 | 3.2 | 9.7 | 0.00 | 0.00 | 0.00 | 69 | 1011.7 |
| 20260509225031 | 22 | 210 | 3.2 | 6.4 | 0.00 | 0.00 | 0.00 | 69 | 1011.8 |
| 20260509224541 | 22 | 194 | 0.0 | 4.8 | 0.00 | 0.00 | 0.00 | 68 | 1011.7 |
| 20260509224033 | 22 | 193 | 1.6 | 4.8 | 0.00 | 0.00 | 0.00 | 68 | 1011.8 |
| 20260509223530 | 22 | 0 | 1.6 | 8.0 | 0.00 | 0.00 | 0.00 | 68 | 1011.8 |
| 20260509223044 | 22 | 0 | 3.2 | 8.0 | 0.00 | 0.00 | 0.00 | 67 | 1011.8 |
| 20260509222529 | 22 | 202 | 3.2 | 8.0 | 0.00 | 0.00 | 0.00 | 67 | 1011.8 |
| 20260509222029 | 22 | 0 | 1.6 | 8.0 | 0.00 | 0.00 | 0.00 | 66 | 1011.8 |
| 20260509221538 | 22 | 200 | 1.6 | 8.0 | 0.00 | 0.00 | 0.00 | 66 | 1011.6 |
| 20260509221031 | 22 | 206 | 3.2 | 8.0 | 0.00 | 0.00 | 0.00 | 67 | 1011.6 |
| 20260509220531 | 22 | 219 | 4.8 | 8.0 | 0.00 | 0.00 | 0.00 | 67 | 1011.5 |
| 20260509220041 | 22 | 189 | 0.0 | 6.4 | 0.00 | 0.00 | 0.00 | 66 | 1011.5 |
| 20260509215532 | 22 | 189 | 3.2 | 6.4 | 0.00 | 0.00 | 0.00 | 66 | 1011.4 |
| 20260509215033 | 22 | 0 | 3.2 | 9.7 | 0.00 | 0.00 | 0.00 | 66 | 1011.6 |
| 20260509214540 | 22 | 206 | 4.8 | 9.7 | 0.00 | 0.00 | 0.00 | 66 | 1011.6 |
| 20260509214033 | 22 | 200 | 3.2 | 9.7 | 0.00 | 0.00 | 0.00 | 66 | 1011.6 |
| 20260509213529 | 22 | 296 | 3.2 | 8.0 | 0.00 | 0.00 | 0.00 | 65 | 1011.6 |
| 20260509213042 | 22 | 200 | 3.2 | 9.7 | 0.00 | 0.00 | 0.00 | 65 | 1011.5 |
| 20260509212531 | 22 | 192 | 4.8 | 9.7 | 0.00 | 0.00 | 0.00 | 66 | 1011.4 |
| 20260509212032 | 22 | 203 | 3.2 | 8.0 | 0.00 | 0.00 | 0.00 | 66 | 1011.2 |
| 20260509211545 | 22 | 0 | 1.6 | 6.4 | 0.00 | 0.00 | 0.00 | 65 | 1011.1 |
| 20260509211032 | 22 | 207 | 0.0 | 16.1 | 0.00 | 0.00 | 0.00 | 65 | 1011.1 |
| 20260509210530 | 23 | 207 | 3.2 | 16.1 | 0.00 | 0.00 | 0.00 | 65 | 1011.1 |
| 20260509210047 | 23 | 220 | 1.6 | 12.9 | 0.00 | 0.00 | 0.00 | 64 | 1011.3 |
| 20260509205530 | 23 | 244 | 3.2 | 12.9 | 0.00 | 0.00 | 0.00 | 65 | 1011.3 |
| 20260509205031 | 23 | 250 | 1.6 | 8.0 | 0.00 | 0.00 | 0.00 | 65 | 1011.3 |
| 20260509204546 | 23 | 251 | 1.6 | 11.3 | 0.00 | 0.00 | 0.00 | 65 | 1011.3 |
| 20260509204032 | 22 | 193 | 3.2 | 11.3 | 0.00 | 0.00 | 0.00 | 65 | 1011.4 |
| 20260509203528 | 22 | 203 | 6.4 | 12.9 | 0.00 | 0.00 | 0.00 | 66 | 1011.4 |
| 20260509203040 | 22 | 242 | 1.6 | 12.9 | 0.00 | 0.00 | 0.00 | 66 | 1011.3 |
| 20260509202531 | 23 | 211 | 6.4 | 12.9 | 0.00 | 0.00 | 0.00 | 66 | 1011.1 |
| 20260509202032 | 23 | 224 | 1.6 | 11.3 | 0.00 | 0.00 | 0.00 | 66 | 1011.4 |
| 20260509201540 | 22 | 196 | 6.4 | 11.3 | 0.00 | 0.00 | 0.00 | 66 | 1011.6 |
| 20260509201031 | 22 | 0 | 3.2 | 16.1 | 0.00 | 0.00 | 0.00 | 66 | 1011.5 |
| 20260509200531 | 22 | 202 | 3.2 | 16.1 | 0.00 | 0.00 | 0.00 | 67 | 1011.5 |
| 20260509200044 | 22 | 186 | 4.8 | 14.5 | 0.00 | 0.00 | 0.00 | 68 | 1011.6 |
| 20260509195533 | 22 | 204 | 3.2 | 12.9 | 0.00 | 0.00 | 0.00 | 67 | 1011.5 |
| 20260509195031 | 22 | 132 | 4.8 | 12.9 | 0.00 | 0.00 | 0.00 | 66 | 1011.5 |
| 20260509194543 | 22 | 249 | 1.6 | 9.7 | 0.00 | 0.00 | 0.00 | 66 | 1011.5 |
| 20260509194034 | 22 | 262 | 1.6 | 9.7 | 0.00 | 0.00 | 0.00 | 67 | 1011.7 |
| 20260509193530 | 22 | 281 | 4.8 | 9.7 | 0.00 | 0.00 | 0.00 | 66 | 1011.6 |
| 20260509193041 | 22 | 232 | 1.6 | 11.3 | 0.00 | 0.00 | 0.00 | 67 | 1011.7 |
| 20260509192531 | 22 | 257 | 3.2 | 11.3 | 0.00 | 0.00 | 0.00 | 67 | 1011.7 |
| 20260509192032 | 22 | 290 | 1.6 | 8.0 | 0.00 | 0.00 | 0.00 | 69 | 1011.8 |
| 20260509191542 | 22 | 217 | 3.2 | 14.5 | 0.00 | 0.00 | 0.00 | 70 | 1011.9 |
| 20260509191033 | 21 | 275 | 3.2 | 14.5 | 0.00 | 0.00 | 0.00 | 69 | 1012.0 |
| 20260509190531 | 21 | 355 | 6.4 | 12.9 | 0.00 | 0.00 | 0.00 | 69 | 1012.0 |
| 20260509190047 | 21 | 223 | 1.6 | 8.0 | 0.00 | 0.00 | 0.00 | 70 | 1012.1 |
| 20260509185532 | 21 | 300 | 1.6 | 8.0 | 0.00 | 0.00 | 0.00 | 72 | 1012.1 |
| 20260509185031 | 21 | 305 | 1.6 | 8.0 | 0.00 | 0.00 | 0.00 | 72 | 1012.2 |
| 20260509184622 | 20 | 0 | 0.0 | 9.7 | 0.00 | 0.00 | 0.00 | 73 | 1012.0 |
| 20260509184030 | 20 | 204 | 4.8 | 11.3 | 0.00 | 0.00 | 0.00 | 73 | 1012.2 |
| 20260509183530 | 21 | 229 | 1.6 | 11.3 | 0.00 | 0.00 | 0.00 | 73 | 1012.1 |
| 20260509183042 | 21 | 232 | 1.6 | 8.0 | 0.00 | 0.00 | 0.00 | 72 | 1012.2 |
| 20260509182530 | 21 | 0 | 1.6 | 9.7 | 0.00 | 0.00 | 0.00 | 72 | 1012.2 |
| 20260509182031 | 21 | 255 | 4.8 | 12.9 | 0.00 | 0.00 | 0.00 | 73 | 1012.4 |
| 20260509181546 | 21 | 313 | 4.8 | 12.9 | 0.00 | 0.00 | 0.00 | 73 | 1012.4 |
| 20260509181030 | 21 | 209 | 4.8 | 11.3 | 0.00 | 0.00 | 0.00 | 74 | 1012.5 |
| 20260509180534 | 21 | 0 | 0.0 | 9.7 | 0.00 | 0.00 | 0.00 | 74 | 1012.4 |
| 20260509180041 | 20 | 331 | 4.8 | 11.3 | 0.00 | 0.00 | 0.00 | 74 | 1012.4 |
| 20260509175534 | 20 | 331 | 1.6 | 11.3 | 0.00 | 0.00 | 0.00 | 75 | 1012.3 |
| 20260509175031 | 20 | 315 | 4.8 | 12.9 | 0.00 | 0.00 | 0.00 | 74 | 1012.2 |
| 20260509174540 | 20 | 309 | 6.4 | 12.9 | 0.00 | 0.00 | 0.00 | 76 | 1012.1 |
| 20260509174035 | 20 | 199 | 1.6 | 14.5 | 0.00 | 0.00 | 0.00 | 77 | 1012.1 |
| 20260509173536 | 20 | 273 | 4.8 | 14.5 | 0.00 | 0.00 | 0.00 | 80 | 1012.4 |
| 20260509173046 | 19 | 225 | 3.2 | 12.9 | 0.00 | 0.00 | 0.00 | 80 | 1012.5 |
| 20260509172530 | 18 | 273 | 4.8 | 11.3 | 0.00 | 0.00 | 0.00 | 80 | 1012.7 |
| 20260509172031 | 18 | 289 | 3.2 | 9.7 | 0.00 | 0.00 | 0.00 | 81 | 1012.8 |
| 20260509171544 | 18 | 225 | 3.2 | 11.3 | 0.00 | 0.00 | 0.00 | 82 | 1012.8 |
| 20260509171031 | 18 | 212 | 4.8 | 12.9 | 0.00 | 0.00 | 0.00 | 83 | 1012.6 |
| 20260509170530 | 18 | 193 | 4.8 | 19.3 | 0.00 | 0.00 | 0.00 | 83 | 1012.8 |
| 20260509170044 | 18 | 187 | 6.4 | 19.3 | 0.00 | 0.00 | 0.00 | 84 | 1012.9 |
| 20260509165531 | 18 | 225 | 4.8 | 14.5 | 0.00 | 0.00 | 0.00 | 86 | 1012.9 |